TimeCDT,TemperatureF,Dew PointF,Humidity,Sea Level PressureIn,VisibilityMPH,Wind Direction,Wind SpeedMPH,Gust SpeedMPH,PrecipitationIn,Events,Conditions,WindDirDegrees,DateUTC
12:53 AM,54.0,45.0,72,29.32,10.0,SE,6.9,-,N/A,,Clear,130,2012-10-17 05:53:00
1:53 AM,53.1,45.0,74,29.30,10.0,SE,8.1,-,N/A,,Clear,140,2012-10-17 06:53:00
2:53 AM,53.1,45.0,74,29.29,10.0,SSE,6.9,-,N/A,,Mostly Cloudy,150,2012-10-17 07:53:00
3:53 AM,53.1,46.0,77,29.24,10.0,ESE,8.1,-,N/A,,Overcast,120,2012-10-17 08:53:00
4:53 AM,53.1,46.0,77,29.21,10.0,East,6.9,-,N/A,,Overcast,100,2012-10-17 09:53:00
5:53 AM,52.0,46.9,83,29.20,10.0,Calm,Calm,-,N/A,,Overcast,0,2012-10-17 10:53:00
6:53 AM,51.1,48.0,89,29.16,7.0,North,10.4,-,0.03,,Overcast,10,2012-10-17 11:53:00
7:53 AM,51.1,48.9,92,29.16,4.0,NNE,8.1,-,0.07,Rain,Light Rain,20,2012-10-17 12:53:00
8:20 AM,51.8,48.2,88,29.14,2.0,NNE,8.1,-,0.05,Rain,Light Rain,20,2012-10-17 13:20:00
8:30 AM,51.8,48.2,88,29.13,3.0,NNE,5.8,-,0.05,Rain,Light Rain,20,2012-10-17 13:30:00
8:53 AM,51.1,48.9,92,29.14,3.0,NNE,4.6,-,0.06,,Overcast,30,2012-10-17 13:53:00
9:02 AM,51.8,48.2,88,29.13,3.0,North,3.5,-,N/A,,Overcast,350,2012-10-17 14:02:00
9:13 AM,51.8,48.2,88,29.13,2.5,WNW,4.6,-,N/A,,Overcast,300,2012-10-17 14:13:00
9:39 AM,51.8,50.0,94,29.12,2.5,West,10.4,-,0.00,Rain,Light Rain,280,2012-10-17 14:39:00
9:48 AM,51.8,50.0,94,29.12,3.0,WNW,8.1,-,0.00,Rain,Light Rain,300,2012-10-17 14:48:00
9:53 AM,51.1,50.0,96,29.12,3.0,NW,6.9,-,0.00,Rain,Light Rain,320,2012-10-17 14:53:00
10:11 AM,51.8,50.0,94,29.12,2.5,WNW,8.1,-,0.01,Rain,Light Rain,300,2012-10-17 15:11:00
10:22 AM,51.8,50.0,94,29.11,2.0,WNW,10.4,-,0.04,Rain,Rain,300,2012-10-17 15:22:00
10:33 AM,51.8,50.0,94,29.12,7.0,WNW,16.1,23.0,0.05,Rain,Light Rain,290,2012-10-17 15:33:00
10:53 AM,51.1,48.9,92,29.13,4.0,WNW,26.5,35.7,0.06,Rain,Light Rain,290,2012-10-17 15:53:00
11:14 AM,50.0,48.2,94,29.13,6.0,WNW,26.5,38.0,0.02,Rain,Light Rain,290,2012-10-17 16:14:00
11:53 AM,48.9,46.9,93,29.15,10.0,WNW,24.2,29.9,0.03,,Overcast,290,2012-10-17 16:53:00
12:53 PM,48.9,46.0,90,29.19,10.0,West,18.4,25.3,0.00,,Overcast,270,2012-10-17 17:53:00
1:53 PM,48.9,45.0,86,29.19,10.0,West,20.7,25.3,N/A,,Overcast,280,2012-10-17 18:53:00
2:02 PM,48.2,44.6,87,29.18,10.0,West,17.3,29.9,N/A,,Overcast,270,2012-10-17 19:02:00
2:40 PM,51.8,46.4,82,29.18,10.0,West,18.4,24.2,N/A,,Overcast,270,2012-10-17 19:40:00
2:53 PM,51.1,46.0,83,29.19,10.0,West,13.8,-,N/A,,Overcast,270,2012-10-17 19:53:00
3:53 PM,50.0,46.9,89,29.21,7.0,West,17.3,24.2,0.00,,Overcast,270,2012-10-17 20:53:00
3:55 PM,48.2,46.4,93,29.20,7.0,West,17.3,24.2,N/A,,Overcast,280,2012-10-17 20:55:00
4:53 PM,46.0,44.1,93,29.24,6.0,West,17.3,23.0,N/A,,Overcast,280,2012-10-17 21:53:00
5:00 PM,46.4,42.8,87,29.23,6.0,West,20.7,27.6,N/A,,Overcast,280,2012-10-17 22:00:00
5:21 PM,44.6,42.8,93,29.23,2.5,West,20.7,26.5,0.00,Rain,Light Rain,280,2012-10-17 22:21:00
5:49 PM,44.6,42.8,93,29.24,4.0,West,17.3,26.5,0.00,,Overcast,270,2012-10-17 22:49:00
5:53 PM,44.1,42.1,93,29.26,6.0,West,18.4,25.3,0.00,,Overcast,270,2012-10-17 22:53:00
6:36 PM,44.6,41.0,87,29.25,10.0,West,18.4,26.5,N/A,,Overcast,280,2012-10-17 23:36:00
6:53 PM,44.1,41.0,89,29.28,9.0,West,17.3,25.3,N/A,,Overcast,270,2012-10-17 23:53:00
7:16 PM,42.8,42.8,100,29.27,5.0,West,17.3,23.0,0.00,Rain,Light Rain,270,2012-10-18 00:16:00
7:46 PM,44.6,41.0,87,29.28,10.0,West,12.7,23.0,0.01,,Overcast,280,2012-10-18 00:46:00
7:53 PM,43.0,41.0,93,29.30,7.0,West,13.8,19.6,0.01,,Overcast,280,2012-10-18 00:53:00
8:10 PM,42.8,41.0,93,29.28,5.0,West,12.7,-,0.00,,Overcast,270,2012-10-18 01:10:00
8:53 PM,43.0,41.0,93,29.30,7.0,West,15.0,20.7,0.00,,Overcast,270,2012-10-18 01:53:00
9:53 PM,43.0,41.0,93,29.30,9.0,WNW,13.8,-,0.01,,Overcast,290,2012-10-18 02:53:00
10:53 PM,42.1,39.9,92,29.28,10.0,West,12.7,21.9,N/A,,Overcast,280,2012-10-18 03:53:00
11:08 PM,42.8,39.2,87,29.25,10.0,West,15.0,-,N/A,,Overcast,280,2012-10-18 04:08:00
11:53 PM,42.1,39.0,89,29.26,10.0,West,13.8,21.9,N/A,,Overcast,280,2012-10-18 04:53:00